Location: Newark
(30.2328°N, 54.2869°E)
Time: 20:12:32
(UTC+00:00)

Hubble Space Telescope - Pass Details

Date: 26 July 2019
Orbit: 536 x 540 km, 28.5° (Epoch: 24 August)

Event Time Altitude Azimuth Distance (km) Brightness Sun altitude
Exits shadow 00:54:45 10° 218° (SW) 1,788 2.9 -9.1°
Reaches altitude 10° 00:54:46 10° 218° (SW) 1,781 2.8 -9.1°
Maximum altitude 00:58:15 26° 160° (SSE) 1,059 2.2 -8.5°
Drops below altitude 10° 01:01:44 10° 102° (ESE) 1,782 4.2 -7.8°
Sets 01:04:15 0° 90° (E) 2,673 5.6 -7.3°
